星链-35235(STARLINK-35235)

导读 | 豆包AI

STARLINK-35235是美国SpaceX星链星座的一员,于2025年9月21日发射入轨。星链系统旨在构建全球覆盖的低轨卫星互联网,为偏远地区、海洋及灾害区域提供高速网络服务。作为批量部署的Starlink卫星之一,它延续了该星座标准化设计,进一步扩充了低轨通信网络的覆盖范围与容量,推动全球互联基础设施建设。

基本信息
目录编号:
65682
目录名称:
STARLINK-35235
国际标识:
2025-212G
轨道中心:
EARTH
卫星名称:
星链-35235
卫星全名:
星链-35235(STARLINK-35235)
卫星状态:
在轨 (已飞行220 天)
发射日期:
2025-09-21 UTC
国别 :
美国 (US)
星等 :
--
轨道信息
数据来源 国际轨道数据
星历时间: 2026-04-28T14:55:37+0800
1天前
查看轨道信息
半长轴: 6843.258km
偏心率: 0.0001597
轨道倾角: 53.159°
近地点辐角 53.453°
升交点赤经 114.843°
平近点角 306.662°
近地点: 464.028km
远地点: 466.214km
周期: 93.898分钟
每日圈数: 15.335871
详细信息
固有亮度:
5
最大亮度:
2.5
卫星平台:
Starlink V1.0
覆盖范围:
全球
运营商:
太空探索技术公司
运营商所在国:
美国
制造商(研发单位):
太空探索技术公司
制造商所在国:
美国
使用方式:
暂无
卫星简介
Starlink 计划是 SpaceX 推出的全球卫星互联网项目,通过发射低轨道卫星,为全球尤其是偏远地区提供高速、低延迟的互联网服务。自 2019 年起,Starlink 已部署数千颗卫星,旨在缩小全球数字鸿沟,推动互联网普及。该项目还为军事、航空等行业提供通信支持,带来广泛经济效益。
2D轨道图
3D轨道图
轨道高度分析图
轨道倾角分析图
轨道综合分析图
查看轨道综合分析图